Regional Weather Roundup
Issued by NWS Little Rock, AR

Home | Current Version | Previous Version | Graphics & Text | Print | Product List | Glossary On
Versions: 1 2 3 4 5 6 7 8 9 10 11 12 13 14 15 16 17 18 19 20 21 22 23 24 25 26 27 28 29 30 31 32 33 34 35 36 37 38 39 40 41 42 43 44 45 46 47 48 49 50
000
ASUS44 KLZK 271005
RWRLZK

WEATHER ROUNDUP FOR ARKANSAS
NATIONAL WEATHER SERVICE LITTLE ROCK AR
500 AM CDT WED MAY 27 2015

NOTE: "FAIR" INDICATES FEW OR NO CLOUDS BELOW 12,000 FEET WITH NO
SIGNIFICANT WEATHER AND/OR OBSTRUCTIONS TO VISIBILITY.

ARZ001-003-010-029-271100-
NORTHWEST ARKANSAS

CITY           SKY/WX    TMP DP  RH WIND       PRES   REMARKS
FAYETTEVILLE   CLOUDY    62  61  96 S3        30.05R
FORT SMITH     CLOUDY    66  62  87 VRB3      30.03S
HARRISON       CLOUDY    69  66  90 CALM      30.05R
BENTONVILLE    CLOUDY   N/A N/A N/A CALM      30.05R
ROGERS         CLOUDY    67  64  90 S7        30.06R
SILOAM SPGS    CLOUDY    64  55  72 SW6       30.06R
$$

ARZ004-005-016-271100-
NORTH CENTRAL ARKANSAS

CITY           SKY/WX    TMP DP  RH WIND       PRES   REMARKS
BATESVILLE     MOCLDY    68  64  88 SW5       30.05R
FLIPPIN        CLOUDY    66  64  94 S3        30.00F
MTN HOME       CLOUDY    66  65  96 S6        30.01F
$$

ARZ040-041-271100-
WEST CENTRAL ARKANSAS

CITY           SKY/WX    TMP DP  RH WIND       PRES   REMARKS
MENA           CLOUDY    72  68  88 CALM      30.06S
MOUNT IDA      CLOUDY    73  67  81 SW6       30.04R
$$

ARZ009-017-025-026-028-271100-
NORTHEAST ARKANSAS

CITY           SKY/WX    TMP DP  RH WIND       PRES   REMARKS
CORNING        FAIR      66  66 100 SE3       30.05R
JONESBORO      PTCLDY    63  63 100 CALM      30.05R
NEWPORT        PTCLDY    67  67 100 CALM      30.06R
WALNUT RIDGE   MOCLDY    64  63  94 SE5       30.04S
BLYTHEVILLE    MOCLDY    67  66  97 SE5       30.06R
$$

ARZ022-023-033-042-044-271100-
CENTRAL ARKANSAS

CITY           SKY/WX    TMP DP  RH WIND       PRES   REMARKS
LITTLE ROCK    CLOUDY    68  62  81 S5        30.06R
N LITTLE ROCK    N/A     69  67  93 S9        30.06R
JACKSONVILLE   CLOUDY    69  64  82 S5        30.05R
SEARCY         MOCLDY    65  64  97 CALM      30.07R FOG
HOT SPRINGS    CLOUDY    73  68  84 S5        30.06R
RUSSELLVILLE   CLOUDY    69  68  96 CALM      30.05R
CLINTON        FAIR      63  63 100 CALM      30.07R FOG
$$

ARZ036-271100-
EAST ARKANSAS

CITY           SKY/WX    TMP DP  RH WIND       PRES   REMARKS
WEST MEMPHIS   PTCLDY    71  70  96 S8        30.04S
$$

ARZ050-053-066-070-073-271100-
SOUTHWEST ARKANSAS

CITY           SKY/WX    TMP DP  RH WIND       PRES   REMARKS
ARKADELPHIA    FAIR      71  71 100 CALM      30.05S
CAMDEN         CLOUDY    68  64  88 CALM      30.05R
TEXARKANA      CLOUDY    70  62  76 SW3       30.03F
EL DORADO      CLOUDY    69  68  96 SE7       30.05S
DE QUEEN       CLOUDY    70  65  84 NW3       30.02S
$$

ARZ056-057-069-271100-
SOUTHEAST ARKANSAS

CITY           SKY/WX    TMP DP  RH WIND       PRES   REMARKS
PINE BLUFF     CLOUDY    70  68  93 S5        30.05S
STUTTGART      MOCLDY    72  66  83 S9        30.06R
MONTICELLO     MOCLDY    69  67  93 S6        30.06F

$$




USA.gov is the U.S. government's official web portal to all federal, state and local government web resources and services.